Terminal Aerodrome Forecast
Issued by NWS

Home | Current Version | Previous Version | Graphics & Text | Print | Product List | Glossary On
Versions: 1 2 3 4 5 6 7 8 9 10 11 12 13 14 15 16
284
FTUS43 KBIS 240344 AAA
TAFMOT
TAF AMD
KMOT 240344Z 2404/2424 32014KT P6SM VCSH BKN060
      TEMPO 2405/2407 -SHRA BKN050
     FM240700 30009KT P6SM BKN080
     FM241300 30013G22KT P6SM FEW030 BKN060
     FM241500 31020G28KT P6SM SCT045 BKN060=

USA.gov is the U.S. government's official web portal to all federal, state and local government web resources and services.